Погода в Моржовце

Россия / Архангельская область     66°41′13″N   42°34′51″E
темп.,
°C
ветер,
м/с
пор.,
м/с
влажн.,
%
обл.,
%
осадки,
мм/ч
давл.,
гПа
погр.,
м
30 ноября, вт
вт3000:00−4ююв44756 0.0 1014441
03:00−5ююв6676100 0.0 1013374
06:00−5вюв7885100 0.0 1012598
09:00−5вюв121567100 0.0 1009791
12:00−5в141879100 0.0 1007851
15:00−5в162179100 0.0 1002817
18:00−6в172575100 0.0 998904
21:00−6в192770100 0.0 993941
1 декабря, ср
ср100:00−5в202669100 0.0 989989
03:00−6в192291100 0.5 987933
06:00−6в171888100 0.5 986861
09:00−6в151686100 0.8 986816
12:00−7в141587100 0.1 987825
15:00−7в141489100 0.1 987836
18:00−7всв131489100 0.2 986854
21:00−7всв131391100 0.5 986798
2 декабря, чт
чт200:00−6всв121291100 0.3 986614
03:00−5всв121389100 0.6 986647
06:00−5всв111290100 0.7 987682
09:00−4всв111290100 1.1 988792
12:00−4св111289100 0.5 989852
15:00−4св111284100 0.9 991932
18:00−4св121385100 0.3 9931068
21:00−3св131675100 0.6 9951379
3 декабря, пт
пт300:00−4св101281100 0.3 9971216
03:00−4св9980100 0.6 10001110
06:00−4всв7881100 0.3 10021010
09:00−5всв786995 0.4 10051246
12:00−5в5668100 0.1 10081115
15:00−5св996425 0.1 10101298
18:00−5всв896120 0.1 10121332
21:00−6всв996221 0.1 10141270
4 декабря, сб
сб400:00−6вюв786852 0.1 10151207
03:00−7вюв677136 0.1 1016990
06:00−7вюв787328 0.0 1016830
09:00−7вюв78695 0.0 1017766
12:00−7вюв6767100 0.0 1016601
15:00−7в676630 0.0 1016570
18:00−7всв676771 0.0 1016472
21:00−6всв568197 0.0 1017532